| time (UTC) | temp F | wind direction | speed MPH | gust MPH | rain 1hr in | rain 24hr in | rain mn in | humidity % | barometer mb |
| 20260902114551 | 53 | 60 | 0.0 | 1.0 | 0.00 | 0.00 | 0.00 | 43 | 1008.2 |
| 20260902113048 | 54 | 60 | 0.0 | 3.0 | 0.00 | 0.00 | 0.00 | 40 | 1008.0 |
| 20260902111550 | 54 | 107 | 0.0 | 2.0 | 0.00 | 0.00 | 0.00 | 41 | 1008.0 |
| 20260902110045 | 54 | 139 | 0.0 | 6.0 | 0.00 | 0.00 | 0.00 | 37 | 1008.0 |
| 20260902104542 | 54 | 75 | 0.0 | 3.0 | 0.00 | 0.00 | 0.00 | 38 | 1008.0 |
| 20260902103038 | 54 | 117 | 1.0 | 6.0 | 0.00 | 0.00 | 0.00 | 37 | 1008.1 |
| 20260902101537 | 54 | 124 | 0.0 | 3.0 | 0.00 | 0.00 | 0.00 | 28 | 1008.0 |
| 20260902100034 | 54 | 124 | 1.0 | 3.0 | 0.00 | 0.00 | 0.00 | 29 | 1008.1 |
| 20260902094532 | 54 | 113 | 1.0 | 4.0 | 0.00 | 0.00 | 0.00 | 32 | 1008.0 |
| 20260902093031 | 54 | 115 | 0.0 | 5.0 | 0.00 | 0.00 | 0.00 | 27 | 1008.0 |
| 20260902091528 | 54 | 125 | 0.0 | 2.0 | 0.00 | 0.00 | 0.00 | 25 | 1007.9 |
| 20260902090024 | 55 | 112 | 0.0 | 3.0 | 0.00 | 0.00 | 0.00 | 25 | 1007.9 |
| 20260902084529 | 55 | 117 | 2.0 | 5.0 | 0.00 | 0.00 | 0.00 | 27 | 1008.2 |
| 20260902083019 | 55 | 113 | 2.0 | 5.0 | 0.00 | 0.00 | 0.00 | 30 | 1007.9 |
| 20260902081517 | 55 | 105 | 3.0 | 7.0 | 0.00 | 0.00 | 0.00 | 32 | 1007.9 |
| 20260902080012 | 56 | 117 | 4.0 | 8.0 | 0.00 | 0.00 | 0.00 | 35 | 1008.1 |
| 20260902074509 | 56 | 115 | 3.0 | 9.0 | 0.00 | 0.00 | 0.00 | 35 | 1007.7 |
| 20260902073004 | 55 | 115 | 4.0 | 8.0 | 0.00 | 0.00 | 0.00 | 36 | 1007.5 |
| 20260902071600 | 55 | 139 | 3.0 | 7.0 | 0.00 | 0.00 | 0.00 | 39 | 1007.6 |
| 20260902070054 | 55 | 111 | 3.0 | 6.0 | 0.00 | 0.00 | 0.00 | 39 | 1007.3 |
| 20260902064552 | 55 | 113 | 4.0 | 7.0 | 0.00 | 0.00 | 0.00 | 40 | 1007.4 |
| 20260902063109 | 55 | 124 | 1.0 | 4.0 | 0.00 | 0.00 | 0.00 | 40 | 1007.6 |
| 20260902061552 | 56 | 146 | 1.0 | 6.0 | 0.00 | 0.00 | 0.00 | 39 | 1007.6 |
| 20260902060059 | 56 | 108 | 3.0 | 9.0 | 0.00 | 0.00 | 0.00 | 39 | 1007.4 |
| 20260902054555 | 56 | 98 | 3.0 | 11.0 | 0.00 | 0.00 | 0.00 | 39 | 1007.2 |
| 20260902053040 | 56 | 125 | 1.0 | 7.0 | 0.00 | 0.00 | 0.00 | 39 | 1007.8 |
| 20260902051546 | 56 | 97 | 2.0 | 5.0 | 0.00 | 0.00 | 0.00 | 41 | 1007.7 |
| 20260902050036 | 56 | 113 | 0.0 | 5.0 | 0.00 | 0.00 | 0.00 | 40 | 1007.7 |
| 20260902044536 | 56 | 110 | 1.0 | 8.0 | 0.00 | 0.00 | 0.00 | 39 | 1007.6 |
| 20260902043030 | 56 | 96 | 4.0 | 8.0 | 0.00 | 0.00 | 0.00 | 40 | 1007.6 |
| 20260902041541 | 56 | 120 | 0.0 | 4.0 | 0.00 | 0.00 | 0.00 | 41 | 1007.2 |
| 20260902040027 | 57 | 114 | 1.0 | 6.0 | 0.00 | 0.00 | 0.00 | 41 | 1007.0 |
| 20260902034524 | 56 | 117 | 0.0 | 3.0 | 0.00 | 0.00 | 0.00 | 42 | 1007.0 |
| 20260902033023 | 56 | 100 | 0.0 | 4.0 | 0.00 | 0.00 | 0.00 | 42 | 1006.9 |
| 20260902031521 | 56 | 103 | 0.0 | 4.0 | 0.00 | 0.00 | 0.00 | 46 | 1006.4 |
| 20260902030019 | 56 | 91 | 0.0 | 7.0 | 0.00 | 0.00 | 0.00 | 48 | 1006.1 |
| 20260902024517 | 56 | 210 | 3.0 | 6.0 | 0.00 | 0.00 | 0.00 | 49 | 1006.3 |
| 20260902023012 | 56 | 105 | 2.0 | 5.0 | 0.00 | 0.00 | 0.00 | 44 | 1006.3 |
| 20260902021508 | 57 | 105 | 4.0 | 8.0 | 0.00 | 0.00 | 0.00 | 43 | 1006.2 |
| 20260902020006 | 59 | 107 | 3.0 | 10.0 | 0.00 | 0.00 | 0.00 | 43 | 1006.0 |
| 20260902014503 | 61 | 103 | 4.0 | 11.0 | 0.00 | 0.00 | 0.00 | 40 | 1006.2 |
| 20260902013002 | 62 | 104 | 4.0 | 12.0 | 0.00 | 0.00 | 0.00 | 39 | 1006.3 |
| 20260902011559 | 63 | 118 | 4.0 | 11.0 | 0.00 | 0.00 | 0.00 | 39 | 1006.3 |
| 20260902010059 | 64 | 110 | 5.0 | 15.0 | 0.00 | 0.00 | 0.00 | 38 | 1006.4 |
| 20260902004559 | 64 | 102 | 6.0 | 16.0 | 0.00 | 0.00 | 0.00 | 38 | 1006.4 |
| 20260902003155 | 65 | 78 | 6.0 | 11.0 | 0.00 | 0.00 | 0.00 | 36 | 1006.6 |
| 20260902001552 | 66 | 89 | 5.0 | 13.0 | 0.00 | 0.00 | 0.00 | 35 | 1006.9 |
| 20260902000050 | 66 | 91 | 6.0 | 12.0 | 0.00 | 0.00 | 0.00 | 34 | 1006.7 |
| 20260901234547 | 66 | 58 | 4.0 | 12.0 | 0.00 | 0.00 | 0.00 | 36 | 1006.8 |
| 20260901233046 | 66 | 102 | 2.0 | 13.0 | 0.00 | 0.00 | 0.00 | 36 | 1006.9 |
| 20260901231552 | 66 | 35 | 1.0 | 12.0 | 0.00 | 0.00 | 0.00 | 36 | 1006.9 |
| 20260901230042 | 66 | 56 | 2.0 | 14.0 | 0.00 | 0.00 | 0.00 | 34 | 1007.1 |
| 20260901224543 | 67 | 96 | 7.0 | 11.0 | 0.00 | 0.00 | 0.00 | 34 | 1007.1 |
| 20260901223038 | 67 | 92 | 5.0 | 13.0 | 0.00 | 0.00 | 0.00 | 29 | 1007.3 |
| 20260901221540 | 67 | 356 | 4.0 | 15.0 | 0.00 | 0.00 | 0.00 | 30 | 1007.3 |
| 20260901220040 | 68 | 62 | 7.0 | 16.0 | 0.00 | 0.00 | 0.00 | 29 | 1007.5 |
| 20260901214533 | 68 | 79 | 7.0 | 11.0 | 0.00 | 0.00 | 0.00 | 28 | 1007.6 |
| 20260901213030 | 67 | 87 | 3.0 | 15.0 | 0.00 | 0.00 | 0.00 | 30 | 1007.7 |
| 20260901211528 | 67 | 75 | 3.0 | 8.0 | 0.00 | 0.00 | 0.00 | 29 | 1007.7 |
| 20260901210025 | 66 | 106 | 5.0 | 11.0 | 0.00 | 0.00 | 0.00 | 30 | 1007.6 |
| 20260901204522 | 66 | 43 | 2.0 | 9.0 | 0.00 | 0.00 | 0.00 | 33 | 1007.7 |
| 20260901203021 | 68 | 308 | 4.0 | 9.0 | 0.00 | 0.00 | 0.00 | 33 | 1007.6 |
| 20260901201519 | 68 | 82 | 1.0 | 7.0 | 0.00 | 0.00 | 0.00 | 33 | 1007.8 |
| 20260901200015 | 66 | 20 | 3.0 | 13.0 | 0.00 | 0.00 | 0.00 | 35 | 1007.9 |
| 20260901194513 | 67 | 46 | 5.0 | 10.0 | 0.00 | 0.00 | 0.00 | 35 | 1008.1 |
| 20260901193010 | 67 | 90 | 3.0 | 11.0 | 0.00 | 0.00 | 0.00 | 34 | 1008.2 |
| 20260901191508 | 65 | 118 | 3.0 | 13.0 | 0.00 | 0.00 | 0.00 | 39 | 1008.4 |
| 20260901190009 | 66 | 19 | 4.0 | 9.0 | 0.00 | 0.00 | 0.00 | 40 | 1008.4 |
| 20260901184504 | 65 | 96 | 4.0 | 8.0 | 0.00 | 0.00 | 0.00 | 38 | 1008.3 |
| 20260901183107 | 65 | 56 | 3.0 | 8.0 | 0.00 | 0.00 | 0.00 | 38 | 1008.5 |
| 20260901181559 | 64 | 95 | 3.0 | 8.0 | 0.00 | 0.00 | 0.00 | 37 | 1008.3 |
| 20260901180053 | 64 | 353 | 2.0 | 9.0 | 0.00 | 0.00 | 0.00 | 39 | 1008.3 |
| 20260901174556 | 65 | 90 | 3.0 | 12.0 | 0.00 | 0.00 | 0.00 | 39 | 1008.2 |
| 20260901173048 | 63 | 54 | 3.0 | 11.0 | 0.00 | 0.00 | 0.00 | 40 | 1008.2 |
| 20260901171551 | 62 | 53 | 2.0 | 10.0 | 0.00 | 0.00 | 0.00 | 40 | 1008.0 |
| 20260901170042 | 62 | 107 | 3.0 | 7.0 | 0.00 | 0.00 | 0.00 | 40 | 1007.8 |
| 20260901164545 | 63 | 104 | 3.0 | 8.0 | 0.00 | 0.00 | 0.00 | 44 | 1007.6 |
| 20260901163100 | 62 | 23 | 3.0 | 8.0 | 0.00 | 0.00 | 0.00 | 45 | 1007.4 |
| 20260901161532 | 62 | 78 | 3.0 | 7.0 | 0.00 | 0.00 | 0.00 | 48 | 1007.4 |
| 20260901160029 | 62 | 245 | 1.0 | 9.0 | 0.00 | 0.00 | 0.00 | 49 | 1007.0 |
| 20260901154541 | 61 | 83 | 0.0 | 8.0 | 0.00 | 0.00 | 0.00 | 48 | 1007.1 |
| 20260901153035 | 61 | 51 | 2.0 | 6.0 | 0.00 | 0.00 | 0.00 | 51 | 1006.7 |
| 20260901151521 | 61 | 86 | 1.0 | 5.0 | 0.00 | 0.00 | 0.00 | 49 | 1006.8 |
| 20260901150016 | 60 | 60 | 3.0 | 6.0 | 0.00 | 0.00 | 0.00 | 52 | 1006.8 |
| 20260901144519 | 60 | 89 | 0.0 | 5.0 | 0.00 | 0.00 | 0.00 | 54 | 1006.9 |
| 20260901143010 | 59 | 93 | 0.0 | 7.0 | 0.00 | 0.00 | 0.00 | 56 | 1006.7 |
| 20260901141514 | 58 | 90 | 1.0 | 5.0 | 0.00 | 0.00 | 0.00 | 58 | 1006.5 |
| 20260901140005 | 58 | 104 | 2.0 | 4.0 | 0.00 | 0.00 | 0.00 | 54 | 1006.6 |
| 20260901134504 | 58 | 84 | 0.0 | 6.0 | 0.00 | 0.00 | 0.00 | 55 | 1006.1 |
| 20260901133002 | 57 | 119 | 1.0 | 4.0 | 0.00 | 0.00 | 0.00 | 54 | 1006.3 |
| 20260901131559 | 58 | 103 | 0.0 | 6.0 | 0.00 | 0.00 | 0.00 | 50 | 1006.1 |
| 20260901130057 | 58 | 137 | 0.0 | 4.0 | 0.00 | 0.00 | 0.00 | 43 | 1006.0 |
| 20260901124554 | 58 | 98 | 0.0 | 3.0 | 0.00 | 0.00 | 0.00 | 39 | 1006.1 |
| 20260901123052 | 58 | 128 | 0.0 | 3.0 | 0.00 | 0.00 | 0.00 | 34 | 1006.0 |
| 20260901121555 | 59 | 108 | 0.0 | 2.0 | 0.00 | 0.00 | 0.00 | 28 | 1006.1 |
| 20260901120049 | 58 | 131 | 0.0 | 2.0 | 0.00 | 0.00 | 0.00 | 23 | 1006.2 |